M I D A S
Marine Information and Data Acquisition System
Tripno 366 of the Zeeleeuw from 2002-11-27 07:43:24 to 2002-11-27 13:54:14
Back to CruiseResearch ActivitiesStationsMapUnderway DataData graphs

EquipmentUnitsComments
TimeDGPSUTC
LatitudeDGPSDM.mWGS84
LongitudeDGPSDM.mWGS84
SpeedMeteo Stationm/sRelative wind speed
DirectionMeteo StationdegRelative wind direction
TemperatureMeteo Stationdeg CelciusAir temperature
PressureMeteo StationPaAtmospheric pressure
HumidityMeteo Station%Relative humidity
Missing or incorrect values are displayed as -999
Metereological data collected by the RV Zeeleeuw from 2002-11-27 07:43:24 to 2002-11-27 13:54:14
Time Latitude Longitude Speed Direction Temperature Pressure Humidity
2002-11-27 07:44 51°13.597 2°56.095 4.2 210 4.2 101350 92
2002-11-27 07:45 51°13.608 2°56.054 5.4 196 4.2 101350 92
2002-11-27 07:46 51°13.618 2°56.024 4.3 204 4.2 101360 92
2002-11-27 07:47 51°13.643 2°55.952 3.1 213 4.2 101360 92
2002-11-27 07:48 51°13.673 2°55.862 2.9 180 4.2 101360 92
2002-11-27 07:49 51°13.686 2°55.768 3.5 156 4.2 101360 92
2002-11-27 07:50 51°13.688 2°55.725 3.8 109 4.2 101360 92
2002-11-27 07:51 51°13.723 2°55.726 1.5 318 4.1 101360 92
2002-11-27 07:52 51°13.804 2°55.659 1.7 93 4.2 101360 92
2002-11-27 07:53 51°13.925 2°55.587 0.5 136 4.2 101370 92
2002-11-27 07:54 51°14.061 2°55.502 2.2 76 4.3 101370 92
2002-11-27 07:55 51°14.187 2°55.377 1.2 15 4.3 101370 92
2002-11-27 07:56 51°14.303 2°55.196 1.2 3 4.4 101370 92
2002-11-27 07:57 51°14.423 2°55.003 1.2 222 4.4 101370 92
2002-11-27 07:58 51°14.599 2°54.841 1.3 239 4.4 101370 92
2002-11-27 07:59 51°14.788 2°54.67 1.7 155 4.5 101360 92
2002-11-27 08:00 51°14.984 2°54.496 1.5 129 4.6 101360 92
2002-11-27 08:01 51°15.181 2°54.32 0.7 155 4.6 101360 92
2002-11-27 08:02 51°15.382 2°54.14 2.1 111 4.7 101360 92
2002-11-27 08:03 51°15.583 2°53.955 2.7 91 4.8 101360 92
2002-11-27 08:04 51°15.788 2°53.769 1.3 121 4.9 101360 92
2002-11-27 08:05 51°15.988 2°53.576 1.9 103 5 101370 92
2002-11-27 08:06 51°16.191 2°53.383 1.5 136 5.1 101360 92
2002-11-27 08:07 51°16.392 2°53.189 0.9 142 5.2 101370 92
2002-11-27 08:08 51°16.595 2°52.998 2 104 5.2 101360 92
2002-11-27 08:09 51°16.796 2°52.807 0.5 116 5.2 101380 92
2002-11-27 08:10 51°17 2°52.623 1.1 157 5.3 101370 92
2002-11-27 08:11 51°17.207 2°52.441 1 214 5.2 101370 91
2002-11-27 08:12 51°17.437 2°52.355 4.5 144 5.3 101370 92
2002-11-27 08:13 51°17.676 2°52.351 3 134 5.4 101370 91
2002-11-27 08:14 51°17.914 2°52.347 5.6 164 5.6 101380 91
2002-11-27 08:15 51°18.143 2°52.443 5.9 168 5.6 101370 91
2002-11-27 08:16 51°18.372 2°52.539 7 168 5.6 101370 91
2002-11-27 08:17 51°18.6 2°52.644 9.1 166 5.6 101370 91
2002-11-27 08:18 51°18.772 2°52.889 9.8 195 5.7 101360 91
2002-11-27 08:19 51°18.888 2°53.208 11.5 198 5.6 101350 90
2002-11-27 08:20 51°18.978 2°53.545 11.2 198 5.5 101340 91
2002-11-27 08:21 51°19.052 2°53.898 12 194 5.4 101350 90
2002-11-27 08:22 51°19.127 2°54.242 10.8 194 5.4 101340 90
2002-11-27 08:23 51°19.202 2°54.587 11.7 195 5.4 101350 91
2002-11-27 08:24 51°19.278 2°54.931 10.8 188 5.3 101340 91
2002-11-27 08:25 51°19.355 2°55.274 11.2 191 5.3 101350 90
2002-11-27 08:26 51°19.433 2°55.62 11.5 189 5.4 101340 90
2002-11-27 08:27 51°19.506 2°55.964 12.4 197 5.3 101340 90
2002-11-27 08:28 51°19.581 2°56.312 9.7 194 5.3 101350 90
2002-11-27 08:29 51°19.657 2°56.661 11.6 200 5.3 101350 90
2002-11-27 08:30 51°19.735 2°57.009 12.7 204 5.3 101350 90
2002-11-27 08:31 51°19.81 2°57.36 11.7 194 5.4 101350 91
2002-11-27 08:32 51°19.887 2°57.707 12.2 200 5.4 101360 91
2002-11-27 08:33 51°19.962 2°58.056 11.2 193 5.4 101350 90
2002-11-27 08:34 51°20.039 2°58.403 12.7 194 5.4 101350 90
2002-11-27 08:35 51°20.113 2°58.752 10.8 199 5.4 101350 90
2002-11-27 08:36 51°20.187 2°59.101 11.4 198 5.3 101350 90
2002-11-27 08:37 51°20.26 2°59.448 11.3 195 5.3 101360 90
2002-11-27 08:38 51°20.333 2°59.797 10.8 201 5.3 101360 90
2002-11-27 08:39 51°20.407 3°0.144 10.7 205 5.2 101360 90
2002-11-27 08:40 51°20.477 3°0.489 11 198 5.2 101360 90
2002-11-27 08:41 51°20.551 3°0.83 10.2 199 5.2 101360 90
2002-11-27 08:42 51°20.646 3°1.157 10.6 197 5.1 101360 90
2002-11-27 08:43 51°20.737 3°1.487 11.5 196 5.2 101350 90
2002-11-27 08:44 51°20.82 3°1.825 10.7 199 5.2 101350 90
2002-11-27 08:45 51°20.901 3°2.161 11.5 203 5.2 101360 90
2002-11-27 08:46 51°20.982 3°2.495 11.8 202 5.1 101360 90
2002-11-27 08:47 51°21.062 3°2.829 11.2 199 5.1 101360 90
2002-11-27 08:48 51°21.141 3°3.166 10.7 196 5.1 101360 90
2002-11-27 08:49 51°21.216 3°3.506 10.9 198 5.1 101360 90
2002-11-27 08:50 51°21.291 3°3.845 11.7 197 5.2 101360 90
2002-11-27 08:51 51°21.365 3°4.187 10.1 195 5.2 101360 90
2002-11-27 08:52 51°21.439 3°4.529 11.5 202 5.4 101360 91
2002-11-27 08:53 51°21.509 3°4.871 11.3 207 5.5 101360 90
2002-11-27 08:54 51°21.578 3°5.214 11.9 200 5.6 101360 90
2002-11-27 08:55 51°21.648 3°5.556 12.4 202 5.5 101360 90
2002-11-27 08:56 51°21.717 3°5.895 11.7 206 5.3 101360 89
2002-11-27 08:57 51°21.782 3°6.24 12.1 205 5.3 101360 90
2002-11-27 08:58 51°21.836 3°6.587 12.9 198 5.2 101360 89
2002-11-27 08:59 51°21.892 3°6.933 11.9 197 5.1 101360 90
2002-11-27 09:00 51°21.947 3°7.275 12.7 201 5.1 101360 90
2002-11-27 09:01 51°21.992 3°7.621 12.8 202 5.1 101360 89
2002-11-27 09:02 51°22.037 3°7.97 12.8 201 5.1 101370 90
2002-11-27 09:03 51°22.085 3°8.315 13.1 200 5.1 101370 90
2002-11-27 09:04 51°22.128 3°8.662 12.4 196 5.2 101370 89
2002-11-27 09:05 51°22.172 3°9.006 12 199 5.2 101370 89
2002-11-27 09:06 51°22.219 3°9.346 10.8 194 5.3 101380 89
2002-11-27 09:07 51°22.265 3°9.687 10.6 205 5.4 101380 89
2002-11-27 09:08 51°22.309 3°10.027 11.5 198 5.4 101380 88
2002-11-27 09:09 51°22.352 3°10.367 12.4 201 5.4 101380 88
2002-11-27 09:10 51°22.398 3°10.706 12.1 197 5.4 101380 88
2002-11-27 09:11 51°22.439 3°11.042 12.4 201 5.3 101370 87
2002-11-27 09:12 51°22.48 3°11.379 11.4 205 5.3 101380 88
2002-11-27 09:13 51°22.524 3°11.714 11.3 194 5.3 101380 88
2002-11-27 09:14 51°22.568 3°12.048 13.2 192 5.3 101390 87
2002-11-27 09:15 51°22.612 3°12.381 12.5 191 5.4 101380 87
2002-11-27 09:16 51°22.655 3°12.712 11.9 192 5.4 101370 87
2002-11-27 09:17 51°22.7 3°13.043 13 195 5.5 101370 87
2002-11-27 09:18 51°22.744 3°13.371 12.2 195 5.5 101380 87
2002-11-27 09:19 51°22.789 3°13.7 12.2 194 5.6 101380 87
2002-11-27 09:20 51°22.835 3°14.026 13.1 201 5.6 101370 87
2002-11-27 09:21 51°22.877 3°14.356 12.8 202 5.6 101380 87
2002-11-27 09:22 51°22.919 3°14.684 13.1 194 5.6 101380 87
2002-11-27 09:23 51°22.964 3°15.008 10.6 195 5.6 101380 87
2002-11-27 09:24 51°23.008 3°15.327 13.2 197 5.6 101390 87
2002-11-27 09:25 51°23.052 3°15.644 12.7 199 5.6 101390 87
2002-11-27 09:26 51°23.085 3°15.96 11.9 192 5.6 101390 86
2002-11-27 09:27 51°23.119 3°16.277 11.9 194 5.6 101390 87
2002-11-27 09:28 51°23.157 3°16.591 11.9 198 5.6 101390 86
2002-11-27 09:29 51°23.214 3°16.899 12.2 189 5.6 101390 86
2002-11-27 09:30 51°23.317 3°17.174 8.5 178 5.6 101390 86
2002-11-27 09:31 51°23.515 3°17.312 6 163 5.6 101400 87
2002-11-27 09:32 51°23.746 3°17.355 6.7 156 5.6 101420 87
2002-11-27 09:33 51°23.979 3°17.406 8.1 166 5.6 101410 87
2002-11-27 09:34 51°24.217 3°17.385 4 152 5.6 101420 87
2002-11-27 09:35 51°24.455 3°17.264 1.3 166 5.6 101420 87
2002-11-27 09:36 51°24.625 3°16.963 4.5 290 5.7 101430 87
2002-11-27 09:37 51°24.683 3°16.563 7.9 295 5.8 101430 87
2002-11-27 09:38 51°24.7 3°16.145 7.5 293 5.9 101420 87
2002-11-27 09:39 51°24.723 3°15.73 7 299 6 101410 87
2002-11-27 09:40 51°24.732 3°15.317 7.6 300 6 101410 87
2002-11-27 09:41 51°24.736 3°14.902 7.6 293 6.1 101400 86
2002-11-27 09:42 51°24.73 3°14.489 8.5 294 6.2 101400 86
2002-11-27 09:43 51°24.71 3°14.078 10 293 6.3 101410 86
2002-11-27 09:44 51°24.689 3°13.667 7.7 289 6.4 101400 85
2002-11-27 09:45 51°24.669 3°13.254 9.2 291 6.5 101390 85
2002-11-27 09:46 51°24.642 3°12.845 9 292 6.5 101400 85
2002-11-27 09:47 51°24.602 3°12.439 9.8 290 6.5 101390 85
2002-11-27 09:48 51°24.561 3°12.032 8.7 290 6.5 101390 84
2002-11-27 09:49 51°24.518 3°11.628 9.3 301 6.5 101380 85
2002-11-27 09:50 51°24.477 3°11.231 9 297 6.6 101390 85
2002-11-27 09:51 51°24.432 3°10.84 10.2 294 6.6 101380 85
2002-11-27 09:52 51°24.383 3°10.452 8.4 293 6.6 101380 85
2002-11-27 09:53 51°24.337 3°10.063 10.1 299 6.7 101380 85
2002-11-27 09:54 51°24.296 3°9.672 9.7 297 6.7 101380 85
2002-11-27 09:55 51°24.268 3°9.281 8.4 295 6.7 101380 84
2002-11-27 09:56 51°24.248 3°8.887 7.6 301 6.8 101390 85
2002-11-27 09:57 51°24.227 3°8.496 8.6 293 6.9 101380 84
2002-11-27 09:58 51°24.209 3°8.105 7.6 302 6.9 101380 84
2002-11-27 09:59 51°24.221 3°7.713 6.4 303 6.9 101380 84
2002-11-27 10:00 51°24.252 3°7.323 4.7 295 7 101380 84
2002-11-27 10:01 51°24.282 3°6.931 5.3 289 7.1 101370 84
2002-11-27 10:02 51°24.338 3°6.548 3.1 294 7.2 101390 84
2002-11-27 10:03 51°24.419 3°6.172 0.7 350 7.2 101380 83
2002-11-27 10:04 51°24.537 3°5.822 3.3 357 7.2 101380 83
2002-11-27 10:05 51°24.704 3°5.534 2.2 80 7.2 101380 82
2002-11-27 10:06 51°24.931 3°5.389 3.9 132 7.3 101380 83
2002-11-27 10:07 51°25.172 3°5.342 5 160 7.3 101380 82
2002-11-27 10:08 51°25.413 3°5.302 4.2 153 7.2 101380 83
2002-11-27 10:09 51°25.653 3°5.266 4.6 141 7.2 101370 83
2002-11-27 10:10 51°25.895 3°5.233 4.9 152 7.3 101380 84
2002-11-27 10:11 51°26.137 3°5.202 5.7 148 7.3 101380 84
2002-11-27 10:12 51°26.38 3°5.172 5.1 156 7.3 101370 84
2002-11-27 10:13 51°26.622 3°5.147 5.5 144 7.3 101380 84
2002-11-27 10:14 51°26.864 3°5.124 4.6 139 7.3 101370 84
2002-11-27 10:15 51°27.105 3°5.103 5.1 151 7.4 101370 84
2002-11-27 10:16 51°27.34 3°5.043 2.9 126 7.4 101370 84
2002-11-27 10:17 51°27.572 3°4.948 4.1 119 7.5 101380 84
2002-11-27 10:18 51°27.805 3°4.856 4.5 129 7.5 101360 84
2002-11-27 10:19 51°28.033 3°4.729 4.1 111 7.6 101380 84
2002-11-27 10:20 51°28.258 3°4.593 3.1 83 7.6 101360 83
2002-11-27 10:21 51°28.485 3°4.461 4.1 106 7.6 101360 83
2002-11-27 10:22 51°28.714 3°4.333 3.7 95 7.6 101360 83
2002-11-27 10:23 51°28.939 3°4.206 3.7 113 7.6 101360 83
2002-11-27 10:24 51°29.167 3°4.083 3.3 87 7.6 101360 83
2002-11-27 10:25 51°29.396 3°3.96 3.7 118 7.6 101350 83
2002-11-27 10:26 51°29.625 3°3.835 3.4 121 7.6 101350 83
2002-11-27 10:27 51°29.855 3°3.719 3.2 116 7.6 101360 83
2002-11-27 10:28 51°30.084 3°3.601 3.7 106 7.7 101350 83
2002-11-27 10:29 51°30.315 3°3.489 3.4 100 7.8 101340 84
2002-11-27 10:30 51°30.543 3°3.367 4.8 93 7.8 101350 84
2002-11-27 10:31 51°30.769 3°3.243 3.9 98 7.8 101350 84
2002-11-27 10:32 51°30.993 3°3.115 3.5 78 7.8 101340 83
2002-11-27 10:33 51°31.216 3°2.981 3.2 74 7.9 101350 83
2002-11-27 10:34 51°31.44 3°2.845 2.5 102 7.9 101340 83
2002-11-27 10:35 51°31.665 3°2.705 3.4 86 8 101350 83
2002-11-27 10:36 51°31.891 3°2.565 2.7 89 8 101340 83
2002-11-27 10:37 51°32.115 3°2.424 2.1 70 8 101340 82
2002-11-27 10:38 51°32.337 3°2.285 3.1 100 8.1 101340 83
2002-11-27 10:39 51°32.559 3°2.144 3.9 87 8.1 101340 83
2002-11-27 10:40 51°32.782 3°2.008 1.9 90 8.2 101330 83
2002-11-27 10:41 51°33.003 3°1.868 2.8 78 8.2 101330 83
2002-11-27 10:42 51°33.224 3°1.732 4.4 90 8.3 101330 83
2002-11-27 10:43 51°33.445 3°1.592 4.3 68 8.2 101330 81
2002-11-27 10:44 51°33.668 3°1.458 2.7 68 8.2 101330 82
2002-11-27 10:45 51°33.887 3°1.315 2.2 72 8.3 101340 83
2002-11-27 10:46 51°34.11 3°1.176 2.8 72 8.4 101330 82
2002-11-27 10:47 51°34.331 3°1.031 3.6 67 8.4 101320 82
2002-11-27 10:48 51°34.553 3°0.89 4.1 66 8.4 101330 82
2002-11-27 10:49 51°34.773 3°0.748 2.6 53 8.4 101320 81
2002-11-27 10:50 51°34.98 3°0.561 3.4 2 8.6 101310 82
2002-11-27 10:51 51°35.044 3°0.227 11.9 290 8.6 101290 82
2002-11-27 10:52 51°34.933 2°59.906 14.9 281 8.6 101250 83
2002-11-27 10:53 51°34.812 2°59.586 16 284 8.6 101260 82
2002-11-27 10:54 51°34.705 2°59.254 16.3 284 8.6 101250 82
2002-11-27 10:55 51°34.6 2°58.919 14.3 295 8.6 101250 82
2002-11-27 10:56 51°34.502 2°58.574 12.8 290 8.6 101250 82
2002-11-27 10:57 51°34.41 2°58.227 14.1 292 8.5 101250 82
2002-11-27 10:58 51°34.316 2°57.883 14.6 283 8.5 101250 82
2002-11-27 10:59 51°34.219 2°57.533 13.8 285 8.5 101250 83
2002-11-27 11:00 51°34.123 2°57.185 14.5 292 8.6 101250 83
2002-11-27 11:01 51°34.027 2°56.836 12.5 289 8.5 101240 82
2002-11-27 11:02 51°33.93 2°56.488 12.8 291 8.5 101230 82
2002-11-27 11:03 51°33.832 2°56.14 12 290 8.5 101220 82
2002-11-27 11:04 51°33.714 2°55.82 16.1 265 8.5 101230 82
2002-11-27 11:05 51°33.501 2°55.781 19 240 8.4 101220 82
2002-11-27 11:06 51°33.3 2°55.929 18.2 236 8.4 101200 82
2002-11-27 11:07 51°33.104 2°56.11 17.3 227 8.5 101220 83
2002-11-27 11:08 51°32.912 2°56.3 18.3 229 8.4 101220 82
2002-11-27 11:09 51°32.733 2°56.517 17.9 227 8.4 101200 83
2002-11-27 11:10 51°32.547 2°56.72 18.1 229 8.4 101210 82
2002-11-27 11:11 51°32.36 2°56.925 18.1 229 8.5 101200 83
2002-11-27 11:12 51°32.174 2°57.128 18 229 8.4 101190 82
2002-11-27 11:13 51°31.988 2°57.33 17.6 228 8.4 101210 83
2002-11-27 11:14 51°31.801 2°57.532 18.1 229 8.5 101200 83
2002-11-27 11:15 51°31.611 2°57.728 16.6 238 8.5 101200 83
2002-11-27 11:16 51°31.415 2°57.618 13.2 289 8.5 101200 83
2002-11-27 11:17 51°31.298 2°57.288 13.4 284 8.5 101200 83
2002-11-27 11:18 51°31.165 2°56.966 12.2 284 8.5 101200 83
2002-11-27 11:19 51°31.043 2°56.635 13 290 8.5 101190 82
2002-11-27 11:20 51°30.922 2°56.301 12.3 285 8.6 101200 83
2002-11-27 11:21 51°30.809 2°55.957 13.7 290 8.6 101180 82
2002-11-27 11:22 51°30.691 2°55.619 14.8 288 8.7 101190 82
2002-11-27 11:23 51°30.574 2°55.28 13.4 281 8.7 101190 82
2002-11-27 11:24 51°30.457 2°54.942 12.5 288 8.7 101190 81
2002-11-27 11:25 51°30.34 2°54.604 12.9 285 8.8 101200 82
2002-11-27 11:26 51°30.221 2°54.267 13.6 283 8.8 101180 81
2002-11-27 11:27 51°30.105 2°53.927 13.7 286 8.7 101190 81
2002-11-27 11:28 51°29.987 2°53.589 14 283 8.8 101180 82
2002-11-27 11:29 51°29.871 2°53.249 13.8 286 8.8 101190 81
2002-11-27 11:30 51°29.782 2°52.896 11 302 8.8 101190 82
2002-11-27 11:31 51°29.83 2°52.525 3.6 348 8.9 101210 82
2002-11-27 11:32 51°30.004 2°52.28 2.7 36 8.9 101220 82
2002-11-27 11:33 51°30.202 2°52.089 2.8 82 8.8 101210 80
2002-11-27 11:34 51°30.419 2°51.961 3.4 89 8.8 101210 81
2002-11-27 11:35 51°30.633 2°51.816 2.8 111 8.8 101200 81
2002-11-27 11:36 51°30.845 2°51.67 4.5 111 8.8 101190 82
2002-11-27 11:37 51°31.061 2°51.528 4.3 101 8.9 101190 82
2002-11-27 11:38 51°31.279 2°51.389 3.9 92 8.8 101190 81
2002-11-27 11:39 51°31.496 2°51.247 4.4 98 8.8 101190 81
2002-11-27 11:40 51°31.709 2°51.103 2.3 84 8.9 101190 81
2002-11-27 11:41 51°31.915 2°50.956 3.9 91 9 101190 82
2002-11-27 11:42 51°32.062 2°50.696 4 319 9.1 101180 83
2002-11-27 11:43 51°32.02 2°50.336 13.3 285 9.2 101150 82
2002-11-27 11:44 51°31.895 2°50.011 14.5 290 9.2 101130 81
2002-11-27 11:45 51°31.772 2°49.679 15 287 9.1 101140 80
2002-11-27 11:46 51°31.647 2°49.346 15.2 294 9.1 101130 81
2002-11-27 11:47 51°31.522 2°49.012 14 283 9.2 101120 81
2002-11-27 11:48 51°31.397 2°48.677 14.7 296 9.2 101120 81
2002-11-27 11:49 51°31.273 2°48.34 14.3 290 9.2 101120 80
2002-11-27 11:50 51°31.149 2°48.002 15 292 9.2 101120 80
2002-11-27 11:51 51°31.023 2°47.664 13 287 9.2 101120 81
2002-11-27 11:52 51°30.902 2°47.322 14.3 295 9.2 101110 81
2002-11-27 11:53 51°30.779 2°46.985 14 292 9.2 101110 81
2002-11-27 11:54 51°30.655 2°46.643 15.9 287 9.1 101110 82
2002-11-27 11:55 51°30.535 2°46.305 14 289 9.2 101110 82
2002-11-27 11:56 51°30.41 2°45.975 13.8 284 9.2 101100 81
2002-11-27 11:57 51°30.23 2°45.749 16.6 256 9.2 101100 81
2002-11-27 11:58 51°30.03 2°45.863 17.1 315 9.2 101080 82
2002-11-27 11:59 51°29.862 2°46.102 17.4 229 9.1 101090 82
2002-11-27 12:00 51°29.684 2°46.329 18.5 231 9.2 101080 82
2002-11-27 12:01 51°29.498 2°46.543 17.6 232 9.1 101100 81
2002-11-27 12:02 51°29.311 2°46.754 18.9 231 9.1 101100 80
2002-11-27 12:03 51°29.125 2°46.964 19.8 228 9 101080 80
2002-11-27 12:04 51°28.94 2°47.172 17.8 232 9 101100 80
2002-11-27 12:05 51°28.75 2°47.38 17.7 227 9 101080 80
2002-11-27 12:06 51°28.562 2°47.587 16.5 231 9 101090 81
2002-11-27 12:07 51°28.369 2°47.792 18.6 232 9.1 101090 81
2002-11-27 12:08 51°28.179 2°47.997 15.6 230 9.1 101090 81
2002-11-27 12:09 51°27.988 2°48.198 16.2 235 9.1 101090 81
2002-11-27 12:10 51°27.798 2°48.401 17.4 232 9.2 101080 82
2002-11-27 12:11 51°27.606 2°48.6 17.1 230 9.1 101110 81
2002-11-27 12:12 51°27.413 2°48.799 16.8 227 9.1 101090 81
2002-11-27 12:13 51°27.22 2°48.996 17.8 232 9.1 101080 81
2002-11-27 12:14 51°27.025 2°49.194 17.3 226 9.1 101080 80
2002-11-27 12:15 51°26.831 2°49.392 16.1 230 9.1 101090 80
2002-11-27 12:16 51°26.637 2°49.59 16.2 228 9.1 101080 80
2002-11-27 12:17 51°26.439 2°49.787 16.5 232 9.2 101100 82
2002-11-27 12:18 51°26.227 2°49.933 16.1 250 9.2 101100 80
2002-11-27 12:19 51°26.031 2°49.746 13.9 280 9.2 101070 80
2002-11-27 12:20 51°25.918 2°49.4 11.7 283 9.1 101090 80
2002-11-27 12:21 51°25.817 2°49.037 11.4 286 9.2 101090 81
2002-11-27 12:22 51°25.718 2°48.672 12 287 9.2 101100 81
2002-11-27 12:23 51°25.619 2°48.309 11.3 282 9.2 101090 81
2002-11-27 12:24 51°25.519 2°47.95 13.6 283 9.3 101090 81
2002-11-27 12:25 51°25.418 2°47.592 13 289 9.3 101090 81
2002-11-27 12:26 51°25.318 2°47.233 12.6 285 9.3 101100 80
2002-11-27 12:27 51°25.249 2°46.86 11 296 9.3 101090 80
2002-11-27 12:28 51°25.328 2°46.506 2 342 9.3 101120 79
2002-11-27 12:29 51°25.501 2°46.261 2.5 34 9.3 101120 79
2002-11-27 12:30 51°25.69 2°46.047 1.7 4 9.3 101120 80
2002-11-27 12:31 51°25.878 2°45.834 2.8 25 9.3 101120 79
2002-11-27 12:32 51°26.062 2°45.612 2.8 15 9.3 101110 79
2002-11-27 12:33 51°26.242 2°45.378 3.2 19 9.4 101110 80
2002-11-27 12:34 51°26.415 2°45.134 3.7 357 9.3 101100 80
2002-11-27 12:35 51°26.584 2°44.88 2.9 4 9.3 101110 80
2002-11-27 12:36 51°26.75 2°44.623 2.9 12 9.3 101100 80
2002-11-27 12:37 51°26.907 2°44.35 3.6 297 9.3 101100 80
2002-11-27 12:38 51°26.921 2°43.975 10.8 295 9.3 101080 80
2002-11-27 12:39 51°26.866 2°43.595 12.5 294 9.4 101070 81
2002-11-27 12:40 51°26.844 2°43.203 10.8 299 9.4 101070 81
2002-11-27 12:41 51°26.774 2°42.833 11.8 284 9.4 101050 80
2002-11-27 12:42 51°26.692 2°42.463 13.2 293 9.5 101050 80
2002-11-27 12:43 51°26.616 2°42.089 12.5 291 9.5 101050 81
2002-11-27 12:44 51°26.533 2°41.716 12.1 287 9.4 101050 80
2002-11-27 12:45 51°26.388 2°41.422 17.8 257 9.5 101020 80
2002-11-27 12:46 51°26.166 2°41.41 17 232 9.5 101030 80
2002-11-27 12:47 51°25.95 2°41.548 18 230 9.5 101010 79
2002-11-27 12:48 51°25.733 2°41.692 17.8 228 9.5 101050 79
2002-11-27 12:49 51°25.516 2°41.833 18.5 236 9.6 101030 79
2002-11-27 12:50 51°25.3 2°41.973 20.2 234 9.5 101030 79
2002-11-27 12:51 51°25.083 2°42.114 17.8 232 9.5 101020 78
2002-11-27 12:52 51°24.866 2°42.256 18.9 232 9.5 101030 79
2002-11-27 12:53 51°24.65 2°42.401 18.5 228 9.4 101040 78
2002-11-27 12:54 51°24.433 2°42.543 17.2 234 9.5 101030 80
2002-11-27 12:55 51°24.218 2°42.689 18.8 235 9.5 101020 80
2002-11-27 12:56 51°24.003 2°42.834 19 236 9.4 101030 79
2002-11-27 12:57 51°23.789 2°42.98 18.6 234 9.4 101030 79
2002-11-27 12:58 51°23.575 2°43.126 18.6 233 9.4 101020 79
2002-11-27 12:59 51°23.363 2°43.273 19.1 227 9.4 101020 79
2002-11-27 13:00 51°23.147 2°43.419 17.8 233 9.4 101030 80
2002-11-27 13:01 51°22.933 2°43.566 17 231 9.4 101020 79
2002-11-27 13:02 51°22.721 2°43.716 19 232 9.4 101030 80
2002-11-27 13:03 51°22.508 2°43.868 17.9 229 9.4 101010 79
2002-11-27 13:04 51°22.295 2°44.019 18.2 230 9.4 101010 80
2002-11-27 13:05 51°22.083 2°44.179 21 233 9.5 100990 81
2002-11-27 13:06 51°21.875 2°44.346 19.1 230 9.5 101010 80
2002-11-27 13:07 51°21.667 2°44.513 17.9 229 9.4 101010 79
2002-11-27 13:08 51°21.464 2°44.693 19.7 229 9.4 100990 80
2002-11-27 13:09 51°21.263 2°44.878 18 233 9.4 101000 79
2002-11-27 13:10 51°21.063 2°45.063 17.1 228 9.4 100990 79
2002-11-27 13:11 51°20.87 2°45.262 17.7 231 9.4 100990 80
2002-11-27 13:12 51°20.676 2°45.461 17.5 229 9.4 101000 79
2002-11-27 13:13 51°20.494 2°45.681 17.1 226 9.4 100980 80
2002-11-27 13:14 51°20.316 2°45.91 16.6 225 9.5 100980 80
2002-11-27 13:15 51°20.152 2°46.159 16.4 224 9.4 100980 79
2002-11-27 13:16 51°20.004 2°46.431 15.2 225 9.5 100970 80
2002-11-27 13:17 51°19.859 2°46.71 15.5 224 9.5 100970 80
2002-11-27 13:18 51°19.719 2°46.997 16.1 218 9.5 100960 79
2002-11-27 13:19 51°19.583 2°47.284 15.7 222 9.5 100950 80
2002-11-27 13:20 51°19.445 2°47.568 15.9 220 9.5 100940 79
2002-11-27 13:21 51°19.307 2°47.851 15.8 219 9.4 100940 78
2002-11-27 13:22 51°19.169 2°48.135 16.2 220 9.5 100960 79
2002-11-27 13:23 51°19.033 2°48.422 18.3 219 9.5 100940 79
2002-11-27 13:24 51°18.898 2°48.708 18.3 220 9.5 100940 78
2002-11-27 13:25 51°18.769 2°49.003 16.1 218 9.5 100950 79
2002-11-27 13:26 51°18.641 2°49.3 17.8 217 9.5 100970 79
2002-11-27 13:27 51°18.511 2°49.597 17.2 214 9.6 100940 79
2002-11-27 13:28 51°18.379 2°49.896 16.4 222 9.5 100960 79
2002-11-27 13:29 51°18.246 2°50.193 16.2 219 9.5 100940 78
2002-11-27 13:30 51°18.113 2°50.489 15.5 219 9.5 100960 79
2002-11-27 13:31 51°17.979 2°50.785 16.6 224 9.6 100950 79
2002-11-27 13:32 51°17.847 2°51.082 16.3 218 9.5 100960 79
2002-11-27 13:33 51°17.716 2°51.376 17.4 221 9.5 100960 79
2002-11-27 13:34 51°17.581 2°51.679 16.1 222 9.5 100960 79
2002-11-27 13:35 51°17.446 2°51.971 17.4 219 9.5 100970 80
2002-11-27 13:36 51°17.272 2°52.202 16.1 235 9.4 100970 79
2002-11-27 13:37 51°17.059 2°52.37 17.6 240 9.4 100990 80
2002-11-27 13:38 51°16.85 2°52.542 16.9 235 9.4 100980 79
2002-11-27 13:39 51°16.644 2°52.711 16.8 235 9.4 100990 80
2002-11-27 13:40 51°16.433 2°52.884 16.9 233 9.4 100990 80
2002-11-27 13:41 51°16.226 2°53.057 16.4 232 9.4 100990 80
2002-11-27 13:42 51°16.021 2°53.232 16.6 231 9.4 101000 79
2002-11-27 13:43 51°15.823 2°53.418 15.3 233 9.4 100990 78
2002-11-27 13:44 51°15.624 2°53.605 17 232 9.4 100980 78
2002-11-27 13:45 51°15.428 2°53.806 16.1 225 9.4 101000 79
2002-11-27 13:46 51°15.236 2°54.003 15.5 231 9.4 100980 79
2002-11-27 13:47 51°15.058 2°54.183 13.7 234 9.4 100980 79
2002-11-27 13:48 51°14.891 2°54.372 14.3 231 9.4 100990 79
2002-11-27 13:49 51°14.734 2°54.585 15.5 225 9.4 100970 78
2002-11-27 13:50 51°14.579 2°54.796 12.9 230 9.4 100960 78
2002-11-27 13:51 51°14.429 2°55.006 14.5 234 9.4 100970 78
2002-11-27 13:52 51°14.299 2°55.211 10.6 225 9.4 100970 78
2002-11-27 13:53 51°14.22 2°55.329 9.7 237 9.4 100990 79